Miscellaneous Local Product
Issued by NWS Hastings, NE

Home | Current Version | Previous Version | Graphics & Text | Print | Product List | Glossary On
Versions: 1 2 3 4 5 6 7 8 9 10 11 12 13 14 15 16 17 18 19 20 21 22 23 24 25 26 27 28 29 30 31 32 33 34 35 36 37 38 39 40 41 42 43 44 45 46 47 48 49 50
000
AXUS43 KGID 170002
MISGRI

GID CWA HOURLY WEATHER ROUNDUP
NATIONAL WEATHER SERVICE HASTINGS NE
700 PM CDT MON OCT 16 2017

NOTE: "FAIR" INDICATES FEW OR NO CLOUDS BELOW 12,000 FEET WITH NO
SIGNIFICANT WEATHER AND/OR OBSTRUCTIONS TO VISIBILITY.

...SOUTH CENTRAL NEBRASKA...

CITY           SKY/WX    TMP DP  RH WIND       PRES   REMARKS
GRAND ISLAND   CLEAR     64  39  39 S7        30.09S
HASTINGS       CLEAR     67  34  29 S8        30.10S
KEARNEY        CLOUDY    65  37  35 S12       30.08S
ORD            CLEAR     63  37  38 S7        30.03F HAZE
YORK           CLEAR     66  37  34 S10       30.10S
AURORA         CLEAR     66  36  32 S8        30.10R
LEXINGTON      CLEAR     69  35  28 S13       30.06R
HOLDREGE       CLEAR     68  37  31 S13       30.08S
HEBRON         CLEAR     65  38  37 S6        30.13F

...NEBRASKA PANHANDLE...

CITY           SKY/WX    TMP DP  RH WIND       PRES   REMARKS
CHADRON        CLEAR     62  26  25 CALM      30.10R
ALLIANCE       CLOUDY    63  27  25 N8        30.12R
SCOTTSBLUFF    CLEAR     64  22  20 N9        30.14R
SIDNEY         CLOUDY    64  23  21 N5        30.16R

...WESTERN AND NORTH CENTRAL NEBRASKA...

CITY           SKY/WX    TMP DP  RH WIND       PRES   REMARKS
VALENTINE      CLEAR     67  32  27 N6        30.05R
AINSWORTH      CLEAR     66  38  34 CALM      30.04S
ONEILL         CLEAR     64  41  42 S7        30.03S
BROKEN BOW     CLEAR     66  45  46 S3        30.04F
IMPERIAL       CLOUDY    71  18  13 W5        30.09S
NORTH PLATTE   CLEAR     59  41  51 CALM      30.06R
MCCOOK         CLOUDY    66  38  35 SW7       30.07F

...EASTERN NEBRASKA...

CITY           SKY/WX    TMP DP  RH WIND       PRES   REMARKS
NORFOLK        CLEAR     64  38  38 S8        30.05S
SO SIOUX CITY  CLEAR     66  39  37 S8        30.05S
TEKAMAH        CLEAR     62  38  40 SE8       30.08S
COLUMBUS       CLEAR     67  38  34 S10       30.09R
ALBION         CLEAR     65  38  36 S6        30.06S
OMAHA EPPLEY   PTCLDY    68  39  34 S13       30.11S
OFFUTT AFB     CLEAR     63  40  43 S8        30.12S
MILLARD        CLOUDY    68  42  38 S8        30.12S
LINCOLN        CLEAR     62  39  42 S12       30.13R
NEBRASKA CITY  CLEAR     61  41  46 S8        30.15F
BEATRICE       CLEAR     65  41  40 S10       30.15S
FALLS CITY     CLEAR     65  38  36 S8        30.17F

...NORTHERN KANSAS...

CITY           SKY/WX    TMP DP  RH WIND       PRES   REMARKS
GOODLAND       CLOUDY    68  35  29 S10       30.12R
HILL CITY      CLOUDY    67  36  31 S9        30.12F
NORTON         CLEAR     66  27  22 S10       30.09S
PHILLIPSBURG   CLEAR     68  34  28 S8        30.11F
SMITH CENTER   CLEAR     63  36  36 S10       30.13S
HAYS           CLEAR     62  35  36 S9        30.16R
RUSSELL        CLEAR     64  36  35 S12       30.15S
CONCORDIA      CLEAR     62  40  44 S10       30.16S
SALINA         CLEAR     63  43  48 S12       30.19F
TOPEKA         CLEAR     64  41  42 S6        30.22S



USA.gov is the U.S. government's official web portal to all federal, state and local government web resources and services.